Weather History for KHRT - April, 2013

Change the Weather History Date:

Saturday, April 13, 2013

  Actual Average Record
Temperature  
Mean Temperature 62 °F -  
Max Temperature 75 °F 72 °F 83 °F (2007)
Min Temperature 50 °F 55 °F 39 °F (2004)
Degree Days  
Heating Degree Days 2    
Growing Degree Days 12 (Base 50)    
Moisture  
Dew Point 52 °F    
Average Humidity 64    
Maximum Humidity 89    
Minimum Humidity 36    
Precipitation  
Precipitation 0.00 in - - ()
Sea Level Pressure  
Sea Level Pressure 29.97 in    
Wind  
Wind Speed 7 mph (SE)    
Max Wind Speed 13 mph    
Max Gust Speed -    
Visibility 10 miles    
Events Rain    
Averages and records for this station are not official NWS values.
T = Trace of Precipitation, MM = Missing Value Source: NWS Daily Summary

Daily Weather History Graph

Daily Weather History Graph

Search for Another Location

Airport or City:

Trip Planner

Search our weather history database for the weather conditions in past years. The results will help you decide how hot, cold, wet, or windy it might be!

Date:

Astronomy

Apr. 13, 2013 Rise Set
Actual Time 6:21 AM CDT 7:13 PM CDT
Civil Twilight 5:56 AM CDT 7:37 PM CDT
Nautical Twilight 5:27 AM CDT 8:07 PM CDT
Astronomical Twilight 4:58 AM CDT 8:36 PM CDT
Moon 8:23 AM CDT (4/13) 10:24 PM CDT (4/13)
Length of Visible Light 13h 41m
Length of Day
12h 51m
Waxing Crescent, 10% of the Moon is Illuminated
Apr 13
Waxing Crescent
Apr 18
First Quarter
Apr 25
Full
May 2
Last Quarter
May 9
New

Hourly Weather History & Observations

Time (CDT) Temp. Dew Point Humidity Pressure Visibility Wind Dir Wind Speed Gust Speed Precip Events Conditions
12:58 AM 53.4 °F 47.3 °F 80% 29.98 in 10.0 mi North 9.2 mph - N/A   Clear
1:58 AM 53.2 °F 45.1 °F 74% 29.97 in 10.0 mi North 8.1 mph - N/A   Clear
2:58 AM 52.0 °F 43.7 °F 73% 29.96 in 10.0 mi North 9.2 mph - N/A   Clear
3:58 AM 53.2 °F 43.9 °F 71% 29.97 in 10.0 mi NE 2.3 mph - N/A   Clear
4:58 AM 52.7 °F 42.8 °F 69% 29.99 in 10.0 mi NNE 4.6 mph - N/A   Clear
5:58 AM 50.0 °F 45.3 °F 84% 30.01 in 10.0 mi North 3.5 mph - N/A   Clear
6:58 AM 50.9 °F 47.8 °F 89% 30.03 in 10.0 mi North 5.8 mph - N/A   Clear
7:58 AM 57.7 °F 48.4 °F 71% 30.04 in 10.0 mi NE 5.8 mph - N/A   Clear
8:58 AM 65.1 °F 45.5 °F 49% 30.05 in 10.0 mi NE 8.1 mph - N/A   Clear
9:58 AM 70.0 °F 44.6 °F 40% 30.05 in 10.0 mi ENE 9.2 mph - N/A   Clear
10:58 AM 73.2 °F 45.0 °F 36% 30.04 in 10.0 mi East 9.2 mph - N/A   Clear
11:58 AM 74.3 °F 46.4 °F 37% 30.02 in 10.0 mi Variable 6.9 mph - N/A   Clear
12:58 PM 74.1 °F 49.6 °F 42% 30.01 in 10.0 mi SSE 12.7 mph - N/A   Clear
1:58 PM 75.0 °F 49.8 °F 41% 29.98 in 10.0 mi SE 9.2 mph - N/A   Clear
2:58 PM 74.3 °F 52.9 °F 47% 29.97 in 10.0 mi South 11.5 mph - N/A   Clear
3:58 PM 72.5 °F 53.6 °F 51% 29.97 in 10.0 mi SSW 10.4 mph - N/A   Partly Cloudy
4:58 PM 71.8 °F 53.4 °F 52% 29.95 in 10.0 mi South 5.8 mph - N/A   Partly Cloudy
5:58 PM 70.5 °F 54.7 °F 57% 29.96 in 10.0 mi WSW 5.8 mph - N/A   Overcast
6:03 PM 69.8 °F 53.6 °F 56% 29.96 in 10.0 mi WSW 5.8 mph - N/A   Overcast
6:58 PM 69.1 °F 54.3 °F 59% 29.92 in 10.0 mi NE 4.6 mph - N/A   Overcast
7:42 PM 68.0 °F 55.4 °F 64% 29.90 in 10.0 mi Variable 1.2 mph - N/A Rain Light Rain
7:51 PM 68.0 °F 55.4 °F 64% 29.92 in 9.0 mi SSW 5.8 mph - N/A   Scattered Clouds
7:58 PM 68.2 °F 56.1 °F 65% 29.94 in 6.0 mi SSW 8.1 mph - 0.00 in   Haze
8:03 PM 68.0 °F 55.4 °F 64% 29.94 in 5.0 mi SW 6.9 mph - N/A   Haze
8:18 PM 68.0 °F 57.2 °F 68% 29.94 in 6.0 mi South 8.1 mph - N/A   Haze
8:23 PM 68.0 °F 57.2 °F 68% 29.95 in 9.0 mi SSW 9.2 mph - N/A   Mostly Cloudy
8:58 PM 68.0 °F 56.5 °F 67% 29.97 in 10.0 mi SW 4.6 mph - N/A   Clear
9:58 PM 67.5 °F 57.7 °F 71% 29.97 in 10.0 mi SSE 4.6 mph - N/A   Mostly Cloudy
10:38 PM 66.2 °F 57.2 °F 73% 29.95 in 10.0 mi Calm Calm - N/A   Light Drizzle
10:47 PM 66.2 °F 57.2 °F 73% 29.96 in 10.0 mi ESE 2.3 mph - N/A   Clear
10:58 PM 65.8 °F 58.3 °F 77% 29.96 in 10.0 mi East 2.3 mph - 0.00 in   Clear
11:02 PM 66.2 °F 59.0 °F 78% 29.96 in 10.0 mi ESE 2.3 mph - N/A Rain Light Rain
11:12 PM 64.4 °F 59.0 °F 83% 29.97 in 10.0 mi South 3.5 mph - N/A   Partly Cloudy
11:58 PM 66.4 °F 59.0 °F 77% 29.96 in 10.0 mi ESE 3.5 mph - 0.00 in   Clear